FW3669 Weather Reports


time (UTC)temp
F
wind
direction
speed
knots
gust
knots
rain 1hr
in
rain 24hr
in
rain mn
in
humidity
%
barometer
mb
20260509024526 51 129 1.7 5.2 0.00 0.02 0.02 88 1008.5
20260509023029 52 139 1.7 3.5 0.00 0.02 0.02 86 1008.5
20260509021525 52 135 2.6 6.1 0.00 0.02 0.02 85 1008.5
20260509020026 53 155 2.6 6.1 0.00 0.02 0.02 84 1008.4
20260509014623 53 150 4.3 6.1 0.00 0.02 0.02 84 1008.4
20260509013034 53 128 2.6 4.3 0.00 0.02 0.02 81 1008.2
20260509011522 54 160 1.7 4.3 0.00 0.02 0.02 80 1008.1
20260509010021 55 151 0.9 3.5 0.00 0.02 0.02 77 1008.0
20260509004524 56 162 2.6 7.8 0.00 0.02 0.02 75 1007.9
20260509003021 57 133 1.7 3.5 0.00 0.02 0.02 71 1007.8
20260509001520 58 165 2.6 11.3 0.00 0.02 0.02 67 1007.8
20260509000019 59 191 4.3 9.6 0.00 0.02 0.02 62 1007.7
20260508234518 61 166 4.3 7.8 0.00 0.02 0.02 58 1007.7
20260508233016 61 221 1.7 7.8 0.00 0.02 0.02 54 1007.8
20260508231515 61 212 0.9 6.1 0.00 0.02 0.02 53 1007.8
20260508230034 61 173 3.5 9.6 0.00 0.02 0.02 53 1007.8
20260508224538 61 221 4.3 12.2 0.00 0.02 0.02 51 1007.9
20260508223024 61 217 5.2 11.3 0.00 0.02 0.02 48 1007.9
20260508221511 61 172 3.5 10.4 0.00 0.02 0.02 46 1008.0
20260508220011 61 166 7.0 11.3 0.00 0.02 0.02 46 1008.1
20260508214509 61 184 6.1 11.3 0.00 0.02 0.02 45 1008.1
20260508213009 61 177 6.1 12.2 0.00 0.02 0.02 44 1008.0
20260508211509 61 200 6.1 13.0 0.00 0.02 0.02 46 1008.1
20260508210005 61 240 6.1 10.4 0.00 0.02 0.02 43 1008.2
20260508204513 60 197 3.5 15.6 0.00 0.02 0.02 44 1008.5
20260508203002 61 191 5.2 11.3 0.00 0.02 0.02 46 1008.7
20260508201600 61 233 3.5 12.2 0.00 0.02 0.02 42 1008.9
20260508200100 60 250 7.0 13.0 0.00 0.02 0.02 44 1009.1
20260508194558 60 134 1.7 9.6 0.00 0.02 0.02 46 1009.3
20260508193128 61 242 3.5 11.3 0.00 0.02 0.02 41 1009.5
20260508191554 59 169 7.8 12.2 0.00 0.02 0.02 45 1009.5
20260508190053 60 238 6.1 12.2 0.00 0.02 0.02 36 1009.9
20260508184612 59 201 8.7 13.9 0.00 0.02 0.02 39 1010.0
20260508183047 59 211 7.8 13.9 0.00 0.02 0.02 35 1010.2
20260508181547 59 172 3.5 11.3 0.00 0.02 0.02 39 1010.4
20260508180050 59 220 8.7 13.0 0.00 0.02 0.02 36 1010.6
20260508174556 58 169 4.3 13.0 0.00 0.02 0.02 35 1010.9
20260508173038 58 278 1.7 10.4 0.00 0.02 0.02 39 1011.2
20260508171553 58 347 0.9 12.2 0.00 0.02 0.02 39 1011.4
20260508170038 57 299 3.5 6.1 0.00 0.02 0.02 39 1011.8
20260508164537 57 175 5.2 13.9 0.00 0.02 0.02 39 1011.9
20260508163033 56 309 2.6 8.7 0.00 0.02 0.02 41 1011.9
20260508161539 55 253 2.6 8.7 0.00 0.02 0.02 43 1012.1
20260508160032 56 326 4.3 7.0 0.00 0.02 0.02 45 1012.1
20260508154525 55 126 1.7 7.8 0.00 0.02 0.02 44 1012.3
20260508153033 55 345 1.7 7.0 0.00 0.02 0.02 45 1012.3
20260508151531 54 243 5.2 8.7 0.00 0.02 0.02 47 1012.5
20260508150016 53 283 3.5 9.6 0.00 0.02 0.02 58 1012.5
20260508144514 52 252 3.5 8.7 0.00 0.02 0.02 51 1012.7
20260508143011 52 255 1.7 6.1 0.00 0.02 0.02 55 1012.8
20260508141512 51 191 2.6 6.1 0.00 0.02 0.02 57 1012.9
20260508140008 51 263 2.6 6.1 0.00 0.02 0.02 60 1013.0
20260508134506 50 290 1.7 4.3 0.00 0.02 0.02 63 1012.9
20260508133113 50 207 0.9 4.3 0.00 0.02 0.02 68 1013.2
20260508131601 48 207 3.5 5.2 0.00 0.02 0.02 69 1013.1
20260508130058 47 215 2.6 6.1 0.00 0.02 0.02 73 1013.2
20260508124548 47 231 1.7 3.5 0.00 0.02 0.02 78 1013.1
20260508123044 45 269 1.7 3.5 0.00 0.02 0.02 82 1012.7
20260508121541 44 269 0.0 2.6 0.00 0.02 0.02 87 1012.6
20260508120043 42 268 0.0 0.9 0.00 0.02 0.02 91 1012.6
20260508114534 41 268 0.0 0.0 0.00 0.02 0.02 91 1012.4
20260508113037 39 268 0.0 0.0 0.00 0.02 0.02 91 1012.4
20260508111532 38 268 0.0 0.0 0.00 0.02 0.02 91 1012.3
20260508110032 36 268 0.0 0.0 0.00 0.02 0.02 92 1012.3
20260508104530 34 268 0.0 0.0 0.00 0.02 0.02 92 1012.2
20260508103029 33 268 0.0 0.9 0.00 0.02 0.02 92 1012.3
20260508101527 34 268 0.0 0.0 0.00 0.02 0.02 92 1012.3
20260508100023 34 268 0.0 0.0 0.00 0.02 0.02 91 1012.4
20260508094521 35 268 0.0 0.9 0.00 0.02 0.02 91 1012.4
20260508093019 36 268 0.0 0.9 0.00 0.02 0.02 91 1012.4
20260508091528 37 268 0.0 0.9 0.00 0.02 0.02 91 1012.4
20260508090015 38 268 0.0 0.9 0.00 0.02 0.02 90 1012.5
20260508084509 39 268 0.0 0.9 0.01 0.02 0.02 89 1012.4
20260508083018 39 268 0.0 1.7 0.02 0.02 0.02 90 1012.3
20260508081509 39 285 0.9 6.1 0.02 0.02 0.02 91 1012.4
20260508080005 39 188 0.0 2.6 0.02 0.02 0.02 91 1012.5
20260508074504 39 176 0.0 1.7 0.01 0.01 0.01 91 1012.3
20260508073003 39 176 0.0 0.0 0.00 0.00 0.00 90 1012.3
20260508071503 40 176 0.0 0.0 0.00 0.00 0.00 90 1012.5
20260508070101 40 172 0.9 3.5 0.00 0.00 0.00 90 1012.5
20260508070002 40 165 1.7 3.5 0.00 0.00 0.00 90 1012.5
20260508064556 40 146 0.9 3.5 0.00 0.00 0.00 90 1012.8
20260508063133 40 193 0.0 1.7 0.00 0.00 0.00 89 1013.0
20260508061554 40 194 0.0 1.7 0.00 0.00 0.00 89 1013.1
20260508060053 40 153 0.9 1.7 0.00 0.00 0.00 88 1013.1
20260508054550 39 33 0.0 0.9 0.00 0.00 0.00 87 1013.4
20260508053054 39 33 0.0 0.9 0.00 0.00 0.00 86 1013.3
20260508051607 40 33 0.0 0.0 0.00 0.00 0.00 86 1013.4
20260508050045 40 33 0.0 0.9 0.00 0.00 0.00 84 1013.2
20260508044545 40 33 0.0 2.6 0.00 0.00 0.00 84 1013.0
20260508043039 40 44 0.0 0.9 0.00 0.00 0.00 83 1012.9
20260508041535 40 44 0.0 0.9 0.00 0.00 0.00 82 1013.0
20260508040033 41 44 0.0 1.7 0.00 0.00 0.00 80 1013.0
20260508034532 42 44 0.0 2.6 0.00 0.00 0.00 77 1013.1
20260508033035 41 319 0.0 2.6 0.00 0.00 0.00 81 1013.1
20260508031530 41 41 0.0 1.7 0.00 0.00 0.00 78 1013.2
20260508030031 41 41 0.0 0.9 0.00 0.00 0.00 78 1012.9